Regional Weather Roundup
Issued by NWS Jackson, KY

Home | Current Version | Previous Version | Graphics & Text | Print | Product List | Glossary On
Versions: 1 2 3 4 5 6 7 8 9 10 11 12 13 14 15 16 17 18 19 20 21 22 23 24 25 26 27 28 29 30 31 32 33 34 35 36 37 38 39 40 41 42 43 44 45 46 47 48 49 50
000
ASUS43 KJKL 301510
RWRJKL

EAST KENTUCKY HOURLY WEATHER ROUNDUP
NATIONAL WEATHER SERVICE JACKSON KY
1100 AM EDT SUN APR 30 2017

NOTE: "FAIR" INDICATES FEW OR NO CLOUDS BELOW 12,000 FEET WITH
NO SIGNIFICANT WEATHER AND/OR OBSTRUCTIONS TO VISIBILITY.

* THESE REPORTS ARE NOT UNDER NWS QUALITY CONTROL AND MAY NOT
  REPORT WEATHER SUCH AS PRECIPITATION AND FOG.

KYZ079-080-083-085-087-088-110-112-115-119-120-301600
...EASTERN KENTUCKY...

CITY           SKY/WX    TMP DP  RH WIND       PRES   REMARKS
JACKSON        CLOUDY    77  63  61 VRB5      30.06R
LONDON         CLOUDY    79  62  56 S13       30.04S
SOMERSET*      CLOUDY    77  61  57 S16G26    30.03S
MONTICELLO*    MOSUNNY   79  66  64 S14G28    30.02F
WILLIAMSBURG*  CLOUDY    77  66  69 S7        30.05R
MIDDLESBORO*   CLOUDY    79  63  58 SE3       30.08R
HARLAN APT*    MOSUNNY   79  61  53 SE5       30.08R
PIKE CO APT*     N/A     78  66  68 SE6       30.06S
BIG SANDY APT* SUNNY     80  65  59 S7        30.05S
MOREHEAD APT*  CLOUDY    79  63  57 VRB7G15   30.03R
$$

KYZ035-036-041-042-044-050-067-078-099-301600
...CENTRAL KENTUCKY...

CITY           SKY/WX    TMP DP  RH WIND       PRES   REMARKS
MT STERLING*   PTSUNNY   77  64  65 SW17G23   30.02R HAZE
FLEMING/MASON* CLOUDY    78  65  64 S8G18     30.01R
DANVILLE*      CLOUDY    77  64  65 SW12G24   30.01R
LEXINGTON      CLOUDY    76  64  66 S16       29.99R
FRANKFORT      CLOUDY    79  63  57 S16G23    29.96R
LOUISVILLE     CLOUDY    73  67  81 S7        29.93S
LEBANON*         N/A     77  64  65 S15       29.99R
GLASGOW*       CLOUDY    75  65  70 S10       29.96F
BOWLING GREEN  CLOUDY    76  68  76 S14G22    29.94F
$$

KYZ091>093-OHZ055-061-077-WVZ005-015-034-035-042-301600
...SOUTHERN OHIO/WEST VIRGINIA...

CITY           SKY/WX    TMP DP  RH WIND       PRES   REMARKS
COVINGTON      CLOUDY    76  65  68 S16G36    29.92S
COLUMBUS       CLOUDY    76  67  73 S10       29.96F
DAYTON         CLOUDY    74  66  76 S20G29    29.91S
WILMINGTON     MOSUNNY   76  65  68 SW23G32   29.93F
HUNTINGTON     CLOUDY    82  62  50 S9G17     30.01S
CHARLESTON     MOSUNNY   83  62  49 S10       30.04S
PINEVILLE*     SUNNY     81  63  54 MISG      30.16R
BECKLEY        MOSUNNY   77  60  55 S10G17    30.16R
BLUEFIELD      CLOUDY    72  57  59 VRB7      30.18R
LOGAN CO APT*    N/A     81  63  54 VRB6G14   30.09R
$$

VAZ002-007-008-TNZ017-027-036-066-071-301600
...SOUTHWEST VIRGINIA/EAST TENNESSEE...

CITY           SKY/WX    TMP DP  RH WIND       PRES   REMARKS
WISE*          MOSUNNY   75  59  57 S10G18    30.16R
JONESVILLE*      N/A     79  63  57 S8        30.10R
ABINGDON*      CLOUDY    80  59  48 SW12G17   30.14R
BRISTOL        PTSUNNY   78  60  53 S12       30.10R
MORRISTOWN*    MOSUNNY   79  66  65 CALM      30.07R
SEVIERVILLE*   SUNNY     81  57  44 SW9       30.06R
KNOXVILLE      CLOUDY    78  64  61 SW15      30.07R
LAFOLLETTE*    MOSUNNY   79  64  61 S22G29    30.10R
OAK RIDGE      CLOUDY    81  63  54 S8G22     30.08R
CROSSVILLE     CLOUDY    71  64  78 S14G23    30.08F
NASHVILLE      CLOUDY    78  65  63 S17G25    29.97S
$$

...KEY TO REMARKS...
VSB - VISIBILITY IN MILES
WCI - WIND CHILL INDEX
HX  - HEAT INDEX

$$



USA.gov is the U.S. government's official web portal to all federal, state and local government web resources and services.